Hourly Weather Roundup
Issued by NWS Central Illinois

Home | Current Version | Previous Version | Text Only | Print | Product List | Glossary On
Versions: 1 2 3 4 5 6 7 8 9 10 11 12 13 14 15 16 17 18 19 20 21 22 23 24 25 26 27 28 29 30 31 32 33 34 35 36 37 38 39 40 41 42 43 44 45 46 47 48 49 50
248
NZUS43 KILX 111910
HWRILX

AREA WEATHER ROUNDUP
NATIONAL WEATHER SERVICE, LINCOLN IL
100 PM CST THU FEB 11 2016


CITY           SKY/WX    TMP DP  RH WIND       PRES   REMARKS
BLOOMINGTON    SUNNY     23   4  44 CALM      30.31F
CHAMPAIGN      SUNNY     22   4  46 N6        30.31F WCI  14
DANVILLE       SUNNY     20   5  53 NW3       30.28F
DECATUR        SUNNY     23   7  50 CALM      30.31F
EFFINGHAM      SUNNY     24  10  53 NW6       30.33F WCI  17
FLORA          SUNNY     29   8  40 N6        30.32F WCI  23
GALESBURG      SUNNY     22   5  49 N3        30.33S
JACKSONVILLE   SUNNY     24  10  55 E3        30.33S
LACON          SUNNY     22   3  44 NW6       30.33F WCI  14
LAWRENCEVILLE  SUNNY     26  12  55 VRB5      30.32F WCI  20
LITCHFIELD     SUNNY     22   7  51 CALM      30.31F
$$


CITY           SKY/WX    TMP DP  RH WIND       PRES   REMARKS
LINCOLN        SUNNY     24   8  51 CALM      30.32F
MACOMB         SUNNY     21   7  53 N3        30.35F
MATTOON        SUNNY     21   5  50 N7        30.30F WCI  12
MT CARMEL AP   SUNNY     28   9  43 CALM      30.31F
OLNEY-NOBLE AP SUNNY     28  10  47 N6        30.31F WCI  22
PARIS          SUNNY     22   9  58 NW5       30.32F WCI  16
PEORIA         SUNNY     23   2  40 SE5       30.33F WCI  17
PONTIAC        SUNNY     21   7  54 N5        30.33F WCI  14
RANTOUL        SUNNY     22   5  47 CALM      30.31F
ROBINSON       SUNNY     25   9  51 NE7       30.33F WCI  17
SPRINGFIELD    SUNNY     26   7  44 NE6       30.31F WCI  19
TAYLORVILLE    SUNNY     23  10  58 N7        30.31F WCI  15
$$

...REGIONAL REPORTS...


CITY           SKY/WX    TMP DP  RH WIND       PRES   REMARKS
CHICAGO O`HARE MOSUNNY   18   0  45 VRB7      30.30F WCI   9
KANKAKEE       SUNNY     22   4  47 W5        30.32F WCI  15
MOLINE         SUNNY     23   2  40 CALM      30.34F
MOUNT STERLING SUNNY     20   8  57 CALM      30.32F
MOUNT VERNON   SUNNY     28  10  47 N5        30.31F WCI  23
PITTSFIELD     SUNNY     23   8  51 CALM      30.34S
QUINCY         SUNNY     22   4  46 CALM      30.32F
ROCKFORD       MOSUNNY   19   3  49 NW7       30.33F WCI  10
$$


CITY           SKY/WX    TMP DP  RH WIND       PRES   REMARKS
BURLINGTON     SUNNY     22   6  50 N5        30.33F WCI  16
CEDAR RAPIDS   SUNNY     19   7  59 CALM      30.32F
DES MOINES     CLOUDY    19   0  43 SE7       30.30F WCI  10
KIRKSVILLE     SUNNY     22   5  48 E3        30.31F
OTTUMWA        SUNNY     20   6  55 E3        30.33F
ST LOUIS       MOSUNNY   28  12  51 CALM      30.30F
$$


CITY           SKY/WX    TMP DP  RH WIND       PRES   REMARKS
TERRE HAUTE    SUNNY     23   6  48 VRB5      30.31F WCI  17
EVANSVILLE     SUNNY     31  13  47 N6        30.30F WCI  25
INDIANAPOLIS   MOSUNNY   23   8  52 VRB5      30.27F WCI  17
LAFAYETTE      SUNNY     23   5  46 VRB3      30.30F
MADISON        MOSUNNY   15  -2  46 NW8       30.30F WCI   4
MILWAUKEE      MOSUNNY   17  -1  45 W9        30.29F WCI   6
$$






USA.gov is the U.S. government's official web portal to all federal, state and local government web resources and services.